Temperatura - Umidità - Pioggia orarie del 21-05-2022

Intensità - Direzione vento orarie del 21-05-2022

Dati orari da stazione meteo del 21-05-2022

Nome Stazione Data Ora Temperatura [°C] Umidità [%] Pioggia [mm] Intensità vento[km/h] Direzione vento [°]
Mondovì 21-05-2022 02:00 17.2 93 0 7.6 96
Mondovì 21-05-2022 02:20 17.9 94 0 9.7 109
Mondovì 21-05-2022 02:30 17.1 94 0 7.6 98
Mondovì 21-05-2022 02:40 17 94 0 7.9 99
Mondovì 21-05-2022 02:50 17.1 94 0 10.4 79
Mondovì 21-05-2022 03:00 17.2 94 0 7.9 73
Mondovì 21-05-2022 03:10 17.2 94 0 9 91
Mondovì 21-05-2022 03:20 17.1 93 0 9.4 88
Mondovì 21-05-2022 03:30 17 94 0 10.8 98
Mondovì 21-05-2022 03:40 16.9 94 0 9 111
Mondovì 21-05-2022 03:50 16.8 95 0 7.6 104
Mondovì 21-05-2022 04:00 16.7 95 0 7.9 108
Mondovì 21-05-2022 04:10 16.7 95 0 6.5 94
Mondovì 21-05-2022 04:20 16.6 95 0 5.8 101
Mondovì 21-05-2022 04:30 16.6 95 0 5.8 104
Mondovì 21-05-2022 04:40 16.4 96 0 7.6 97
Mondovì 21-05-2022 04:50 16.5 96 0 7.2 117
Mondovì 21-05-2022 05:00 16.4 96 0 5.8 124
Mondovì 21-05-2022 05:10 16.3 96 0 7.6 130
Mondovì 21-05-2022 05:20 16.3 96 0 6.8 123
Mondovì 21-05-2022 05:30 16.1 96 0 8.6 123
Mondovì 21-05-2022 05:40 16.1 96 0 9 126
Mondovì 21-05-2022 05:50 16.1 96 0 9 136
Mondovì 21-05-2022 06:00 16 96 0 8.6 114
Mondovì 21-05-2022 06:10 16 96 0 7.9 114
Mondovì 21-05-2022 06:20 16.1 97 0 6.8 115
Mondovì 21-05-2022 06:30 16.2 96 0 5.8 100
Mondovì 21-05-2022 06:40 16.4 96 0 9.4 112
Mondovì 21-05-2022 06:50 16.7 95 0 6.1 90
Mondovì 21-05-2022 07:00 17.1 94 0 5.4 107
Mondovì 21-05-2022 07:10 17.8 93 0 6.1 98
Mondovì 21-05-2022 07:20 18.7 91 0 5.4 76
Mondovì 21-05-2022 07:30 19 87 0 9.7 81
Mondovì 21-05-2022 07:40 19.4 85 0 9 104
Mondovì 21-05-2022 07:50 20 84 0 9.7 92
Mondovì 21-05-2022 08:00 20.4 82 0 8.6 99
Mondovì 21-05-2022 08:10 20.9 81 0 8.3 85
Mondovì 21-05-2022 08:20 21 79 0 10.4 98
Mondovì 21-05-2022 08:30 21.6 78 0 9.4 79
Mondovì 21-05-2022 08:40 21.9 76 0 9.7 87
Mondovì 21-05-2022 08:50 22.4 74 0 9 70
Mondovì 21-05-2022 09:00 22.4 73 0 10.1 85
Mondovì 21-05-2022 09:10 22.2 74 0 15.5 74
Mondovì 21-05-2022 09:20 22.4 73 0 14 87
Mondovì 21-05-2022 09:30 23.1 72 0 14 82
Mondovì 21-05-2022 09:40 23.4 70 0 14 74
Mondovì 21-05-2022 09:50 23.3 70 0 13.7 72
Mondovì 21-05-2022 10:00 23.6 71 0 14.4 74
Mondovì 21-05-2022 10:10 23.9 69 0 15.5 71
Mondovì 21-05-2022 10:20 24.5 68 0 14.8 77
Mondovì 21-05-2022 10:30 24.6 67 0 16.2 69
Mondovì 21-05-2022 10:40 25.3 67 0 14.4 78
Mondovì 21-05-2022 10:50 25.4 65 0 16.2 73
Mondovì 21-05-2022 11:00 25.4 65 0 15.8 68
Mondovì 21-05-2022 11:10 25.9 65 0 15.8 59
Mondovì 21-05-2022 11:20 25.9 64 0 15.8 73
Mondovì 21-05-2022 11:30 25.7 64 0 15.8 73
Mondovì 21-05-2022 11:40 26.4 64 0 15.5 69
Mondovì 21-05-2022 11:50 26.5 63 0 17.3 46
Mondovì 21-05-2022 12:00 26.7 64 0 17.6 57
Mondovì 21-05-2022 12:10 26.7 64 0 15.8 48
Mondovì 21-05-2022 12:20 26.5 63 0 15.8 61
Mondovì 21-05-2022 12:30 26.6 63 0 20.2 66
Mondovì 21-05-2022 12:40 26.3 65 0 16.6 64
Mondovì 21-05-2022 12:50 26.3 64 0 18.4 67
Mondovì 21-05-2022 13:00 26.2 64 0 16.2 69
Mondovì 21-05-2022 13:10 27 63 0 13.7 64
Mondovì 21-05-2022 13:20 27.5 61 0 15.1 50
Mondovì 21-05-2022 13:30 27.6 61 0 14.8 65
Mondovì 21-05-2022 13:40 28 60 0 17.3 59
Mondovì 21-05-2022 13:50 27.7 60 0 16.2 68
Mondovì 21-05-2022 14:00 27.8 60 0 17.6 75
Mondovì 21-05-2022 14:10 28 59 0 18.4 70
Mondovì 21-05-2022 14:20 28.3 59 0 15.8 49
Mondovì 21-05-2022 14:30 28 59 0 20.2 65
Mondovì 21-05-2022 14:40 28.3 59 0 16.2 61
Mondovì 21-05-2022 14:50 28.7 58 0 15.1 52
Mondovì 21-05-2022 15:00 28.8 58 0 18 49
Mondovì 21-05-2022 15:10 28.6 58 0 18 60
Mondovì 21-05-2022 15:20 28.3 59 0 15.1 60
Mondovì 21-05-2022 15:30 28.1 59 0 18.7 68
Mondovì 21-05-2022 15:40 28.1 59 0 16.2 63
Mondovì 21-05-2022 15:50 28.8 59 0 13 57
Mondovì 21-05-2022 16:00 29.1 58 0 13.3 53
Mondovì 21-05-2022 16:10 29.3 58 0 16.6 49
Mondovì 21-05-2022 16:20 29.1 58 0 18.4 70
Mondovì 21-05-2022 16:30 29.1 57 0 16.6 67
Mondovì 21-05-2022 16:40 28.6 58 0 14.8 67
Mondovì 21-05-2022 16:50 28.6 58 0 15.8 75
Mondovì 21-05-2022 17:00 28.4 59 0 17.6 66
Mondovì 21-05-2022 17:10 28.3 59 0 16.2 71
Mondovì 21-05-2022 17:20 28.1 60 0 16.9 70
Mondovì 21-05-2022 17:30 28.1 59 0 16.6 74
Mondovì 21-05-2022 17:40 28.1 64 0 16.2 68
Mondovì 21-05-2022 17:50 28 65 0 16.2 69
Mondovì 21-05-2022 18:00 27.7 64 0 14.4 54
Mondovì 21-05-2022 18:10 27.7 66 0 15.5 47
Mondovì 21-05-2022 18:20 26.8 67 0 13 68
Mondovì 21-05-2022 18:30 26.8 66 0 14 54
Mondovì 21-05-2022 18:40 26.7 66 0 15.5 37
Mondovì 21-05-2022 18:50 26.5 66 0 13.3 40
Mondovì 21-05-2022 19:00 26.5 67 0 14.4 51
Mondovì 21-05-2022 19:10 25.8 68 0 13.3 50
Mondovì 21-05-2022 19:20 25.5 69 0 13.7 60
Mondovì 21-05-2022 19:30 24.7 70 0 12.6 66
Mondovì 21-05-2022 19:40 24.4 71 0 13.7 69
Mondovì 21-05-2022 19:50 24 73 0 9.7 75
Mondovì 21-05-2022 20:00 23.9 73 0 10.4 76
Mondovì 21-05-2022 20:10 23.4 75 0 11.2 71
Mondovì 21-05-2022 20:20 22.6 76 0 9.4 70
Mondovì 21-05-2022 20:30 22.3 75 0 9 82
Mondovì 21-05-2022 20:40 21.9 76 0 9.4 66
Mondovì 21-05-2022 20:50 21.4 79 0 9.4 67
Mondovì 21-05-2022 21:00 21 83 0 9.4 81
Mondovì 21-05-2022 21:10 20.7 85 0 9 98
Mondovì 21-05-2022 21:20 20.2 87 0 10.4 101
Mondovì 21-05-2022 21:30 19.9 88 0 11.2 107
Mondovì 21-05-2022 21:40 19.7 87 0 11.2 98
Mondovì 21-05-2022 21:50 19.6 88 0 9.4 102
Mondovì 21-05-2022 22:00 19.3 86 0 10.1 95
Mondovì 21-05-2022 22:10 19.2 87 0 11.2 88
Mondovì 21-05-2022 22:20 19.2 89 0 9.4 101
Mondovì 21-05-2022 22:30 19.1 90 0 6.8 83
Mondovì 21-05-2022 22:40 18.9 90 0 6.8 74
Mondovì 21-05-2022 22:50 18.7 91 0 6.1 88
Mondovì 21-05-2022 23:00 18.5 92 0 7.6 94
Mondovì 21-05-2022 23:10 18.4 92 0 11.2 99
Mondovì 21-05-2022 23:20 18.3 93 0 11.5 108
Mondovì 21-05-2022 23:30 18.2 93 0 10.8 107
Mondovì 21-05-2022 23:40 18.1 93 0 10.4 104
Mondovì 21-05-2022 23:50 18 93 0 8.3 108
Mondovì 22-05-2022 00:00 17.9 93 0 10.4 109
Mondovì 22-05-2022 00:10 17.7 94 0 10.8 106
Mondovì 22-05-2022 00:20 17.8 94 0 11.2 114
Mondovì 22-05-2022 00:30 17.7 93 0 9.4 106

Riassuntivo giornaliero del 21-05-2022